Home > Weather > Wallisellen > Past weeks

Flag for Switzerland Past Weather in Wallisellen, Zurich, Switzerland — Yesterday and Last 2 Weeks

Now
67 °F

Mild.


Feels Like: 67 °F
Forecast: 53 / 77 °F
Wind: 5 mph from Southwest

Location: Zuerich-Fluntern

Current Time: Aug 29, 2016 at 8:11:49 PM

Latest Report: Aug 29, 2016 at 7:00 PM


Visibility: N/A

Pressure: 30.11 "Hg

Humidity: 76%

Dew Point: 59 °F

Location of WallisellenLocation

Past Weather in Wallisellen — Graph

°F

Wallisellen Temperature Yesterday

Maximum temperature yesterday: 87 °F (at 5:00 PM)
Minimum temperature yesterday: 68 °F (at 8:00 AM)
Average temperature yesterday: 77 °F

High & Low Weather Summary for the Past Weeks

 TemperatureHumidityPressure
High89 °F (Aug 26, 4:00 PM)97% (Aug 18, 6:00 PM)30.39 "Hg (Aug 18, 6:00 PM)
Low52 °F (Aug 22, 5:00 AM)36% (Aug 28, 5:00 PM)29.80 "Hg (Aug 17, 6:00 PM)
Average69 °F74%30.06 "Hg
* Reported Aug 14 6:00 PM — Aug 29 6:00 PM, Wallisellen, Weather by CustomWeather, © 2016

Note: Actual official high and low records may vary slightly from our data, if they occured in-between our weather recording intervals... More about our weather records

Advertising

Wallisellen Weather History for the Previous 24 Hours

Scroll right to see more
 ConditionsComfort  
Time TempWeatherWind HumidityBarometerVisibility
6:00 PM
Mon, Aug 29
67 °FMild.3 mph73%30.12 "HgN/A
5:00 PM68 °FMild.2 mph67%30.11 "HgN/A
4:00 PM68 °FMild.5 mph69%30.11 "HgN/A
3:00 PM68 °FMild.5 mph78%30.12 "HgN/A
2:00 PM65 °FOvercast.5 mph89%30.14 "HgN/A
1:00 PM65 °FMild.1 mph92%30.14 "HgN/A
12:00 PM63 °FMild.1 mph93%30.15 "HgN/A
11:00 AM65 °FMild.1 mph93%30.14 "HgN/A
10:00 AM66 °FMild.2 mph86%30.12 "HgN/A
9:00 AM66 °FMild.1 mph83%30.11 "HgN/A
8:00 AM67 °FMild.3 mph75%30.09 "HgN/A
7:00 AM67 °FMild.1 mph82%30.09 "HgN/A
6:00 AM69 °FMild.5 mph71%30.06 "HgN/A
5:00 AM70 °FMild.3 mph71%30.06 "HgN/A
4:00 AM71 °FMild.3 mph65%30.04 "HgN/A
3:00 AM72 °FMild.5 mph63%30.05 "HgN/A
1:00 AM71 °FMild.1 mph69%30.06 "HgN/A
12:00 AM71 °FMild.1 mph69%30.05 "HgN/A
11:00 PM
Sun, Aug 28
73 °FMild.1 mph66%30.04 "HgN/A
10:00 PM75 °FMild.2 mph56%30.03 "HgN/A
9:00 PM78 °FWarm.3 mph48%30.00 "HgN/A
8:00 PM80 °FPassing clouds.7 mph42%29.97 "HgN/A
Weather by CustomWeather, © 2016

See weather overviewHow to use our weather pages